TimeHAST,TemperatureF,Dew PointF,Humidity,Sea Level PressureIn,VisibilityMPH,Wind Direction,Wind SpeedMPH,Gust SpeedMPH,PrecipitationIn,Events,Conditions,WindDirDegrees,DateUTC
8:56 AM,24.8,-20.2,13,-9999,10.0,NNW,5.8,-,N/A,,Unknown,330,2012-11-21 18:56:00
9:16 AM,24.8,-20.2,13,30.30,10.0,North,4.6,-,N/A,,Clear,360,2012-11-21 19:16:00
9:36 AM,24.8,-20.2,13,30.30,10.0,Calm,Calm,-,N/A,,Clear,0,2012-11-21 19:36:00
9:56 AM,23.0,-22.0,13,30.31,10.0,Calm,Calm,-,N/A,,Clear,0,2012-11-21 19:56:00
10:16 AM,24.8,-20.2,13,30.30,10.0,Calm,Calm,-,N/A,,Clear,0,2012-11-21 20:16:00
10:36 AM,28.4,-18.4,12,30.31,10.0,Calm,Calm,-,N/A,,Clear,0,2012-11-21 20:36:00
10:56 AM,30.2,-16.6,13,30.31,10.0,Calm,Calm,-,N/A,,Clear,0,2012-11-21 20:56:00
11:16 AM,33.8,-14.8,12,30.31,10.0,Calm,Calm,-,N/A,,Clear,0,2012-11-21 21:16:00
11:36 AM,35.6,-13.0,12,30.31,10.0,Calm,Calm,-,N/A,,Clear,0,2012-11-21 21:36:00
11:56 AM,35.6,-13.0,12,30.30,10.0,Calm,Calm,-,N/A,,Clear,0,2012-11-21 21:56:00
12:16 PM,37.4,-11.2,12,30.30,10.0,Calm,Calm,-,N/A,,Clear,0,2012-11-21 22:16:00
12:36 PM,37.4,-11.2,12,30.29,10.0,Calm,Calm,-,N/A,,Clear,0,2012-11-21 22:36:00
12:56 PM,39.2,-11.2,11,30.29,10.0,Calm,Calm,-,N/A,,Clear,0,2012-11-21 22:56:00
1:16 PM,41.0,-9.4,12,30.29,10.0,Calm,Calm,-,N/A,,Clear,0,2012-11-21 23:16:00
1:36 PM,41.0,-9.4,12,30.28,10.0,Calm,Calm,-,N/A,,Clear,0,2012-11-21 23:36:00
1:56 PM,41.0,-9.4,12,30.28,10.0,Calm,Calm,-,N/A,,Clear,0,2012-11-21 23:56:00
2:16 PM,39.2,-9.4,12,30.28,10.0,Calm,Calm,-,N/A,,Clear,0,2012-11-22 00:16:00
2:36 PM,39.2,-9.4,12,30.27,10.0,Calm,Calm,-,N/A,,Clear,0,2012-11-22 00:36:00
2:56 PM,39.2,-11.2,11,-9999,10.0,WNW,5.8,-,N/A,,Clear,290,2012-11-22 00:56:00
3:16 PM,37.4,-11.2,12,30.27,10.0,WNW,4.6,-,N/A,,Clear,290,2012-11-22 01:16:00
3:36 PM,37.4,-11.2,12,30.27,10.0,West,6.9,-,N/A,,Clear,280,2012-11-22 01:36:00
3:56 PM,37.4,-11.2,12,30.27,10.0,West,6.9,-,N/A,,Clear,280,2012-11-22 01:56:00
4:16 PM,35.6,-13.0,12,30.27,10.0,West,6.9,-,N/A,,Clear,270,2012-11-22 02:16:00
4:36 PM,33.8,-14.8,12,30.27,10.0,West,5.8,-,N/A,,Clear,260,2012-11-22 02:36:00
4:56 PM,30.2,-16.6,13,30.27,10.0,Calm,Calm,-,N/A,,Clear,0,2012-11-22 02:56:00
5:16 PM,28.4,-18.4,12,30.27,10.0,Calm,Calm,-,N/A,,Clear,0,2012-11-22 03:16:00
5:36 PM,26.6,-18.4,13,30.27,10.0,Calm,Calm,-,N/A,,Clear,0,2012-11-22 03:36:00
5:56 PM,26.6,-20.2,12,30.27,10.0,Calm,Calm,-,N/A,,Clear,0,2012-11-22 03:56:00
6:16 PM,26.6,-20.2,12,30.27,10.0,Calm,Calm,-,N/A,,Clear,0,2012-11-22 04:16:00
6:36 PM,26.6,-20.2,12,30.27,10.0,NNW,4.6,-,N/A,,Clear,340,2012-11-22 04:36:00
6:56 PM,26.6,-20.2,12,30.27,10.0,NNW,3.5,-,N/A,,Clear,340,2012-11-22 04:56:00
7:16 PM,24.8,-20.2,13,30.27,10.0,Calm,Calm,-,N/A,,Clear,0,2012-11-22 05:16:00
7:36 PM,24.8,-20.2,13,30.27,10.0,Calm,Calm,-,N/A,,Clear,0,2012-11-22 05:36:00
7:56 PM,24.8,-22.0,12,30.27,10.0,Calm,Calm,-,N/A,,Clear,0,2012-11-22 05:56:00
8:16 PM,24.8,-22.0,12,30.27,10.0,North,3.5,-,N/A,,Clear,350,2012-11-22 06:16:00
8:36 PM,24.8,-20.2,13,30.27,10.0,North,4.6,-,N/A,,Clear,350,2012-11-22 06:36:00
8:56 PM,24.8,-22.0,12,30.28,10.0,Calm,Calm,-,N/A,,Clear,0,2012-11-22 06:56:00
9:16 PM,24.8,-22.0,12,30.28,10.0,NNW,3.5,-,N/A,,Clear,340,2012-11-22 07:16:00
9:36 PM,24.8,-20.2,13,30.28,10.0,Calm,Calm,-,N/A,,Clear,0,2012-11-22 07:36:00
9:56 PM,23.0,-23.8,12,30.28,10.0,Calm,Calm,-,N/A,,Clear,0,2012-11-22 07:56:00
10:16 PM,23.0,-23.8,12,30.28,10.0,Calm,Calm,-,N/A,,Clear,0,2012-11-22 08:16:00
10:36 PM,21.2,-23.8,13,30.28,10.0,Calm,Calm,-,N/A,,Clear,0,2012-11-22 08:36:00
10:56 PM,23.0,-22.0,13,30.27,10.0,NNW,3.5,-,N/A,,Clear,330,2012-11-22 08:56:00
11:16 PM,23.0,-23.8,12,30.27,10.0,Calm,Calm,-,N/A,,Clear,0,2012-11-22 09:16:00
11:36 PM,23.0,-22.0,13,30.26,10.0,NNW,3.5,-,N/A,,Partly Cloudy,340,2012-11-22 09:36:00
11:56 PM,24.8,-22.0,12,30.26,10.0,NNW,3.5,-,N/A,,Mostly Cloudy,340,2012-11-22 09:56:00